Regional Weather Roundup
Issued by NWS

Home | Current Version | Previous Version | Graphics & Text | Print | Product List | Glossary On
Versions: 1 2 3 4 5 6 7 8 9 10 11 12 13 14 15 16 17 18 19 20 21 22 23 24 25 26 27 28 29 30 31 32 33 34 35 36 37 38 39 40 41 42 43 44 45 46 47 48 49 50
000
ASUS45 KBOU 291707
RWRCO

WEATHER ROUNDUP FOR COLORADO
NATIONAL WEATHER SERVICE DENVER/BOULDER CO
1100 AM MDT SUN MAR 29 2015

NOTE: "FAIR" INDICATES FEW OR NO CLOUDS BELOW 12000 FEET WITH NO
SIGNIFICANT WEATHER AND/OR OBSTRUCTIONS TO VISIBILITY.

COZ001>005-013-030-031-291800-
...NORTHWEST COLORADO...

CITY           SKY/WX    TMP DP  RH WIND       PRES   REMARKS
CRAIG          SUNNY     51  23  33 CALM      30.36S
HAYDEN         SUNNY     48  19  32 CALM      30.36S
MEEKER         SUNNY     55  12  18 CALM      30.35F
MOUNT WERNER   NOT AVBL
STEAMBOAT SPGS SUNNY     47  21  35 CALM      30.36S
WALDEN         SUNNY     43  14  31 S12       30.36S
$$

COZ006>008-011-291800-
...WEST CENTRAL VALLEYS...

CITY           SKY/WX    TMP DP  RH WIND       PRES   REMARKS
GRAND JUNCTION SUNNY     65  12  12 NE16G24   30.26F
MONTROSE       SUNNY     60  18  19 CALM      30.32R
EAGLE          SUNNY     55  12  18 CALM      30.36F
RIFLE          SUNNY     58  16  19 SW5       30.32F
DELTA          SUNNY     65  18  16 S6        30.29S
NUCLA          SUNNY     61  23  23 W7        30.33S
$$

COZ017>023-064>068-291800-
...SOUTHWEST COLORADO...

CITY           SKY/WX    TMP DP  RH WIND       PRES   REMARKS
DURANGO        SUNNY     57  28  33 NW5       30.30S
CORTEZ         SUNNY     66  24  20 VRB3      30.28S
PAGOSA SPRINGS SUNNY     59  19  20 S6        30.33F
TELLURIDE      NOT AVBL
WOLF CREEK PAS SUNNY     41   7  24 W8G22     30.55R
$$

COZ009-010-012-014-032>034-037-058>063-291800-
...CENTRAL COLORADO...

CITY           SKY/WX    TMP DP  RH WIND       PRES   REMARKS
ASPEN          SUNNY     53  14  21 NE8G16    30.36F
BUENA VISTA    SUNNY     56   2  11 N6        30.32R
COPPER MTN     SUNNY     36   5  27 W22G28    30.47S
BERTHOUD PASS  FAIR      28  21  74 NW32G43   30.45R WCI  12
COTTONWOOD PAS SUNNY     50  -9   8 SW10G23   30.39R
GUNNISON       SUNNY     54  25  32 NE3       30.38F
KREMMLING      SUNNY     54   9  16 W7        30.36S
LEADVILLE      SUNNY     43   7  22 NW12G22   30.39F
SALIDA         SUNNY     61   7  12 NE6       30.38S
SUNLIGHT       SUNNY     41   9  26 CALM      30.51S
WILKERSON PASS SUNNY     43   7  22 W5        30.47R
$$

COZ069>075-291800-
...SAN LUIS VALLEY/SANGRE DE CRISTO MOUNTAINS...

CITY           SKY/WX    TMP DP  RH WIND       PRES   REMARKS
ALAMOSA        SUNNY     59  22  24 VRB5      30.32F
LA VETA PASS   SUNNY     43  27  52 NE14      30.44R
SAGUACHE       SUNNY     59  18  20 N5G17     30.33S
$$

COZ035-036-038>040-291800-
...NORTHERN COLORADO FRONT RANGE...

CITY           SKY/WX    TMP DP  RH WIND       PRES   REMARKS
DENVER INTL AP SUNNY     53  20  27 N13       30.33S
DMNS CITY PARK   N/A     51  20  28 E8        30.33F
AURORA         NOT AVBL
FRONT RANGE AP SUNNY     54  21  28 NE12G18   30.35S
ERIE MUNI ARPT SUNNY     53  17  24 SE6       30.32F
BOULDER MUN AP SUNNY     52  23  32 SE12G18   30.30F
CENTENNIAL     MOSUNNY   48  20  32 E7        30.35S
BROOMFIELD     NOT AVBL
FORT COLLINS   SUNNY     54  18  24 SW3       30.31S
LONGMONT       SUNNY     56  21  25 SE9       30.32F
$$

COZ041-046-047-076>085-087-088-291800-
...PIKES PEAK/PALMER DIVIDE AND SOUTHERN FOOTHILLS...

CITY           SKY/WX    TMP DP  RH WIND       PRES   REMARKS
COLO. SPRINGS  MOSUNNY   52  17  25 N12G21    30.33F
A. F. ACADEMY  NOT AVBL
ELLICOTT       SUNNY    N/A N/A N/A N30G37    30.31F
FALCON         SUNNY     46  17  31 N21G26    30.34S
FORT CARSON    NOT AVBL
LIMON          SUNNY     51  21  30 N23       30.32S
MONUMENT HILL  SUNNY     43  19  39 N9        30.35F
TRINIDAD       SUNNY     57  23  26 NE12G20   30.34R
$$

COZ042>045-048>051-090-091-291800-
...NORTHEAST COLORADO...

CITY           SKY/WX    TMP DP  RH WIND       PRES   REMARKS
GREELEY ARPT   SUNNY     57  21  24 N14G21    30.29R
AKRON          SUNNY     53  23  31 N28G36    30.30R
BURLINGTON     SUNNY     56  21  25 N24G36    30.26S
WRAY           SUNNY     58  26  29 NW22G31   30.27R
STERLING       SUNNY     55  27  33 N25       30.28R
HOLYOKE        NOT AVBL
FORT MORGAN    SUNNY    N/A N/A N/A N23G33    30.31S
$$

COZ086-089-092>099-291800-
...SOUTHEAST COLORADO...

CITY           SKY/WX    TMP DP  RH WIND       PRES   REMARKS
PUEBLO         SUNNY     56  18  22 N13G18    30.32S
LA JUNTA       SUNNY     62  19  19 NE21G28   30.31S
LAMAR          CLOUDY    63  20  19 N22G29    30.26S HAZE
SPRINGFIELD      N/A     60  20  21 N26G36    30.27R
$$


USA.gov is the U.S. government's official web portal to all federal, state and local government web resources and services.